[[{"header":{"parameterUnit":"m.s-1","parameterCategory":1,"la1":30.2991,"la2":30.254,"lo1":-89.0895,"lo2":-89.0444,"dy":0.0017,"dx":0.0017,"nx":28,"ny":28,"refTime":"2025-05-16T21:00:00:Z","depth":0,"parameterNumber":2,"parameterNumberName":"U-component_of_WINDS"},"data":[0,0,0,0,0,0,0,0,0,0,0,0,0,0,0,0,0,0,0,0,0,0,0,0,0,0,0,0,0,0,0,0,0,0,0,0,0,0,0,0,0,0,0,0,0,0,0,0,0,0,0,0,0,0,0,0,0,0,1.5904,1.5904,0,1.5958,1.5959,1.5959,1.5932,1.593,1.5929,1.5928,1.5984,1.5987,1.599,0,0,0,0,0,0,0,0,0,0,0,0,0,1.5777,1.578,1.5904,1.5905,1.5905,1.5958,1.5959,1.596,1.5932,1.593,1.5929,1.5927,1.5983,1.5987,1.599,0,0,0,0,0,0,0,0,0,0,0,0,0,1.5832,1.578,1.5904,1.5898,1.5898,1.5958,1.5959,1.596,1.5932,1.593,1.5928,1.5926,1.5982,1.5986,1.5991,1.606,0,0,1.6004,1.6006,0,0,0,0,0,0,0,0,1.5829,1.5837,1.5898,1.5898,1.5898,1.5936,1.5935,1.5993,1.5933,1.5919,1.5928,1.5925,1.597,1.5975,1.599,1.6063,1.6065,1.6004,1.6007,1.6009,1.601,0,0,0,0,0,0,0,1.5825,1.5834,1.5925,1.5899,1.5899,1.5893,1.5898,1.5946,1.5956,1.592,1.5918,1.5925,1.597,1.5986,1.5991,1.6066,1.6004,1.6008,1.601,1.6012,1.6197,1.6199,0,0,0,0,0,0,1.5821,1.5831,1.5924,1.5927,1.5858,1.5897,1.5903,1.5926,1.5956,1.5958,1.5927,1.5924,1.598,1.5986,1.5993,1.6075,1.6009,1.6013,1.6015,1.6195,1.6198,1.62,0,0,0,0,0,0,1.5819,1.583,1.5921,1.5879,1.589,1.5901,1.5928,1.5928,1.5945,1.5961,1.5962,1.5942,1.5978,1.5987,1.6043,1.6077,1.6014,1.6018,1.6192,1.6196,1.6199,1.6241,0,0,0,0,0,0,1.5815,1.5829,1.5855,1.5879,1.5892,1.5971,1.593,1.5931,1.5952,1.5948,1.5975,1.5977,1.5977,1.6037,1.6048,1.6082,1.6022,1.6189,1.6194,1.6198,1.6236,1.6245,1.6253,0,0,0,0,0,1.5811,1.5866,1.5857,1.5868,1.5925,1.5973,1.598,1.5979,1.5955,1.5981,1.5991,1.5976,1.6072,1.6043,1.6055,1.6091,1.6187,1.6192,1.6197,1.6233,1.6244,1.6253,0,0,0,0,0,0,1.5846,1.5869,1.5859,1.5923,1.5946,1.5968,1.6001,1.599,1.6021,1.6016,1.6014,1.602,1.6078,1.609,1.6058,1.6159,1.6126,1.6133,1.6149,1.6159,1.6167,1.6163,1.6025,0,0,0,0,0,1.5861,1.5897,1.5915,1.597,1.5982,1.599,1.601,1.6007,1.6031,1.6041,1.6055,1.6079,1.6114,1.6137,1.6171,1.6238,1.6243,1.6269,1.6277,1.6284,1.629,1.6326,1.6337,1.6218,1.6217,1.6217,0,0,1.5893,1.591,1.5933,1.5978,1.5995,1.6032,1.5998,1.604,1.6067,1.6047,1.61,1.6112,1.6138,1.62,1.6228,1.6212,1.6325,1.629,1.6296,1.6299,1.6333,1.6344,1.6354,1.6221,1.622,1.622,0,0,1.5969,1.5986,1.6033,1.6051,1.6078,1.6082,1.6094,1.6117,1.6123,1.6177,1.6162,1.6196,1.6257,1.6276,1.6293,1.6377,1.6364,1.6388,1.6431,1.6466,1.6475,1.6484,1.6513,1.6523,1.6395,1.6395,1.6395,0,1.6006,1.6061,1.6059,1.6101,1.6121,1.6104,1.6151,1.6169,1.6205,1.622,1.6201,1.6277,1.6293,1.6359,1.6379,1.6395,1.6407,1.6385,1.6474,1.6482,1.649,1.6518,1.6529,1.6398,1.6397,1.6397,1.6397,0,1.6104,1.6143,1.6178,1.6212,1.6236,1.6281,1.6285,1.631,1.6305,1.6312,1.6366,1.6386,1.6422,1.6438,1.6434,1.6503,1.6492,1.6474,1.644,1.6504,1.653,1.6541,1.6401,1.64,1.64,1.6399,0,0,1.6204,1.6236,1.6249,1.6264,1.6292,1.6322,1.6366,1.6401,1.6422,1.6448,1.6484,1.6536,1.6519,1.6539,1.6537,1.6568,1.6632,1.6546,1.6547,1.6561,1.6708,1.6721,1.6733,1.6624,1.6626,1.6628,1.6706,0,1.6282,1.6358,1.6357,1.6427,1.6463,1.6447,1.6485,1.6507,1.6514,1.6546,1.6554,1.659,1.6566,1.6578,1.6608,1.6618,1.6661,1.6612,1.6657,1.6659,1.665,1.6747,1.6761,1.6834,1.6716,1.6718,1.6719,0,1.6382,1.641,1.6485,1.6506,1.6521,1.6556,1.6587,1.6618,1.6642,1.6645,1.6667,1.666,1.6705,1.6671,1.6732,1.6698,1.6717,1.6725,1.6727,1.6731,1.6692,1.6752,1.6857,1.6867,1.6735,1.6734,1.6733,0,1.6446,1.6503,1.6554,1.6568,1.6595,1.6619,1.6632,1.6654,1.6675,1.6703,1.6716,1.675,1.6768,1.6794,1.6796,1.6771,1.6857,1.6823,1.6861,1.6861,1.6879,1.6878,1.6987,1.6893,1.6893,1.6892,1.6892,0,1.6533,1.6578,1.6583,1.6615,1.6665,1.6664,1.6714,1.6725,1.6744,1.6777,1.6766,1.6798,1.6799,1.6831,1.6834,1.6883,1.6892,1.6896,1.6896,1.6896,1.6896,1.6908,1.6902,1.6895,1.6895,1.6894,1.6894,0,1.6613,1.6618,1.6672,1.6694,1.67,1.6736,1.6754,1.6784,1.6791,1.6833,1.6843,1.6853,1.689,1.6895,1.6939,1.6941,1.7,1.6995,1.6992,1.6991,1.7028,1.7024,1.7148,1.7164,1.706,1.7061,1.7062,0,1.6667,1.6701,1.6726,1.6747,1.6761,1.6795,1.6816,1.6817,1.6839,1.6868,1.6895,1.6931,1.696,1.7021,1.7032,1.7065,1.7061,1.7102,1.7066,1.7065,1.706,1.7058,1.7061,1.7109,1.711,1.7111,1.7111,0,1.6762,1.6763,1.6793,1.6825,1.6851,1.6876,1.69,1.6918,1.6921,1.6947,1.6984,1.7007,1.7051,1.7087,1.712,1.7133,1.7123,1.7123,1.7133,1.7134,1.713,1.7131,1.701,1.712,1.7119,1.7118,1.7118,1.7118,1.683,1.686,1.6881,1.6916,1.6933,1.6956,1.6985,1.6994,1.7026,1.7062,1.706,1.7101,1.7124,1.7167,1.7183,1.7215,1.7202,1.7217,1.722,1.7224,1.7227,1.7125,1.7221,1.7221,1.7221,1.7221,1.722,0,1.6924,1.6937,1.6969,1.7001,1.7029,1.7016,1.7042,1.7065,1.7102,1.7124,1.7152,1.7195,1.723,1.7244,1.7278,1.7302,1.7298,1.731,1.7308,1.7311,1.7238,1.7225,1.7313,1.7313,1.7313,1.7313,1.7313,1.7313,1.6975,1.7025,1.7028,1.7086,1.7099,1.7139,1.7154,1.7175,1.7192,1.724,1.7269,1.7278,1.7297,1.7332,1.7363,1.7367,1.7379,1.7394,1.7395,1.7326,1.7316,1.7308,1.7295,1.7397,1.7397,1.7466,1.7466,1.7467]},{"header":{"parameterUnit":"m.s-1","parameterCategory":1,"la1":30.2991,"la2":30.254,"lo1":-89.0895,"lo2":-89.0444,"dy":0.0017,"dx":0.0017,"nx":28,"ny":28,"refTime":"2025-05-16T21:00:00:Z","depth":0,"parameterNumber":3,"parameterNumberName":"V-component_of_WINDS"},"data":[0,0,0,0,0,0,0,0,0,0,0,0,0,0,0,0,0,0,0,0,0,0,0,0,0,0,0,0,0,0,0,0,0,0,0,0,0,0,0,0,0,0,0,0,0,0,0,0,0,0,0,0,0,0,0,0,0,0,3.9105,3.9106,0,3.9132,3.9132,3.9132,3.9075,3.9074,3.9072,3.907,3.9095,3.9097,3.9099,0,0,0,0,0,0,0,0,0,0,0,0,0,3.9002,3.9004,3.9105,3.9106,3.9106,3.9132,3.9132,3.9132,3.9076,3.9074,3.9071,3.9069,3.9094,3.9097,3.91,0,0,0,0,0,0,0,0,0,0,0,0,0,3.904,3.9005,3.9105,3.9081,3.9079,3.9132,3.9132,3.9133,3.9076,3.9073,3.9071,3.9068,3.9093,3.9097,3.91,3.9177,0,0,3.9111,3.9112,0,0,0,0,0,0,0,0,3.9037,3.9043,3.9084,3.9083,3.9081,3.9098,3.9105,3.9147,3.9077,3.9077,3.907,3.9067,3.9098,3.9101,3.9112,3.9178,3.9179,3.9111,3.9113,3.9115,3.9116,0,0,0,0,0,0,0,3.9035,3.9042,3.9116,3.9085,3.9083,3.9067,3.907,3.9113,3.9103,3.9077,3.9073,3.9077,3.9096,3.9108,3.9112,3.918,3.9111,3.9114,3.9117,3.9118,3.9309,3.9312,0,0,0,0,0,0,3.9036,3.904,3.9115,3.9116,3.9052,3.9072,3.9074,3.9095,3.9102,3.91,3.9079,3.9074,3.9104,3.9108,3.9113,3.9202,3.9115,3.9118,3.912,3.9306,3.931,3.9313,0,0,0,0,0,0,3.9034,3.9043,3.9114,3.9077,3.9085,3.9076,3.91,3.9097,3.9109,3.9104,3.9101,3.9094,3.9102,3.9108,3.9161,3.9202,3.912,3.9123,3.9303,3.9307,3.9311,3.9383,0,0,0,0,0,0,3.9031,3.9043,3.9073,3.9078,3.9087,3.9163,3.9103,3.9099,3.9116,3.9109,3.9117,3.9115,3.91,3.9156,3.9165,3.9206,3.9126,3.9299,3.9305,3.931,3.9377,3.9389,3.94,0,0,0,0,0,3.9028,3.9092,3.9075,3.9084,3.9125,3.9166,3.9171,3.9153,3.9119,3.9149,3.9145,3.9115,3.9197,3.9162,3.9171,3.9214,3.9296,3.9303,3.931,3.9372,3.9387,3.94,0,0,0,0,0,0,3.909,3.9092,3.9073,3.9141,3.9154,3.9156,3.9193,3.9169,3.9191,3.9184,3.916,3.9162,3.922,3.9222,3.9184,3.9288,3.9241,3.9249,3.9285,3.9299,3.931,3.9308,3.9129,0,0,0,0,0,3.9112,3.9147,3.9146,3.9205,3.9213,3.9202,3.9219,3.9204,3.9216,3.9221,3.9221,3.9233,3.9261,3.928,3.9306,3.9377,3.9377,3.9411,3.9422,3.9432,3.9439,3.9476,3.949,3.9335,3.9335,3.9335,0,0,3.9158,3.9163,3.9186,3.9218,3.9226,3.9261,3.9207,3.9246,3.9271,3.9226,3.9277,3.9278,3.929,3.9352,3.938,3.9356,3.9482,3.944,3.9448,3.945,3.9484,3.9499,3.9512,3.9339,3.9338,3.9338,0,0,3.9258,3.9266,3.9316,3.9325,3.9338,3.9331,3.9343,3.9349,3.9347,3.9398,3.9365,3.9394,3.9443,3.9453,3.9464,3.9567,3.954,3.9576,3.9636,3.9672,3.9684,3.9695,3.973,3.9744,3.9583,3.9584,3.9584,0,3.9312,3.9365,3.9345,3.9386,3.9401,3.9362,3.9412,3.9422,3.9443,3.9453,3.9426,3.9487,3.9492,3.9555,3.958,3.9591,3.9603,3.9575,3.9684,3.9694,3.9704,3.9738,3.9752,3.9588,3.9587,3.9587,3.9587,0,3.943,3.9467,3.9506,3.9527,3.9546,3.9592,3.9578,3.9599,3.9582,3.9577,3.9628,3.9633,3.9658,3.9672,3.9656,3.9733,3.9718,3.9688,3.964,3.9724,3.9755,3.9768,3.9594,3.9592,3.9591,3.959,0,0,3.9571,3.9581,3.9595,3.9604,3.9615,3.9642,3.9686,3.9711,3.973,3.9745,3.978,3.9822,3.9794,3.9807,3.9791,3.9823,3.9903,3.9788,3.9788,3.9809,3.9987,4.0009,4.0025,3.9885,3.9887,3.9889,3.9986,0,3.967,3.9745,3.9728,3.9802,3.9834,3.9798,3.9835,3.9845,3.9841,3.9868,3.9862,3.9893,3.9854,3.9861,3.9891,3.9887,3.9938,3.9879,3.9916,3.9917,3.9914,4.0041,4.0065,4.0156,3.9998,4.0,4.0001,0,3.9795,3.9816,3.9893,3.9898,3.9911,3.9945,3.9966,3.9992,4.0003,3.9997,4.0012,3.9989,4.0031,3.9982,4.0038,3.9999,4.0013,4.0013,4.0016,4.0018,3.9964,4.0046,4.0185,4.0198,4.0021,4.0019,4.0018,0,3.989,3.9936,3.9988,3.9997,4.0004,4.0029,4.0033,4.004,4.0057,4.0075,4.0085,4.0108,4.012,4.0138,4.0122,4.0088,4.018,4.0131,4.0176,4.0177,4.0197,4.0196,4.0339,4.0207,4.0207,4.0207,4.0206,0,4.0001,4.005,4.003,4.0062,4.0115,4.0094,4.0147,4.0146,4.0153,4.0183,4.0153,4.0182,4.0159,4.0186,4.0174,4.0221,4.0227,4.0224,4.022,4.0226,4.0227,4.0234,4.0227,4.021,4.0209,4.0209,4.0208,0,4.0115,4.0105,4.0159,4.0161,4.0163,4.0201,4.0203,4.0232,4.0225,4.0264,4.0271,4.0261,4.0291,4.0277,4.0308,4.0299,4.0361,4.0349,4.0358,4.0354,4.04,4.0396,4.0553,4.0572,4.0428,4.043,4.0431,0,4.0187,4.0224,4.023,4.0248,4.0255,4.0285,4.0301,4.0281,4.0299,4.0313,4.034,4.0368,4.0388,4.0437,4.0432,4.0455,4.0443,4.0496,4.0446,4.0451,4.0443,4.044,4.0443,4.0506,4.0508,4.0509,4.051,0,4.0316,4.0308,4.0333,4.0356,4.0377,4.0394,4.0408,4.0425,4.0405,4.0427,4.0457,4.0473,4.0505,4.0532,4.0552,4.0555,4.0529,4.0526,4.0538,4.0544,4.0548,4.0546,4.0384,4.0523,4.0521,4.052,4.052,4.0519,4.041,4.044,4.0449,4.0478,4.0487,4.0501,4.0528,4.0524,4.055,4.0574,4.0561,4.0596,4.0604,4.0628,4.0635,4.0661,4.064,4.0657,4.0661,4.0665,4.0671,4.0544,4.0665,4.0664,4.0664,4.0664,4.0663,0,4.0536,4.054,4.0567,4.0588,4.061,4.0585,4.0599,4.0619,4.065,4.066,4.0681,4.0715,4.0741,4.0738,4.0761,4.0783,4.0771,4.0789,4.0787,4.0788,4.0689,4.0677,4.0798,4.0798,4.0798,4.0798,4.0798,4.0798,4.0605,4.0654,4.0648,4.0701,4.0704,4.0738,4.0748,4.0761,4.0768,4.0808,4.083,4.0827,4.0832,4.0855,4.0877,4.0875,4.0885,4.0907,4.0901,4.0809,4.0795,4.0782,4.077,4.091,4.091,4.0997,4.0998,4.0999]}]]